Flag for Turkey Weather past 2 weeks in Bursa, Turkey

Now
79 °F

Sunny.


Feels Like: 81 °F
Forecast: 65 / 91 °F
Wind: 6 mph from West

Location: Bursa

Current Time: Jul 24, 2014 at 10:03:34 AM

Latest Report: Jul 24, 2014 at 9:00 AM


Visibility: 9 mi

Pressure: 29.76 "Hg

Humidity: 67%

Dew point: 67 °F

Location of BursaLocation

Historic Weather in Bursa — Graph

°F

Bursa temperature yesterday

Maximum temperature yesterday: 94 °F (at 3:00 PM)
Minimum temperature yesterday: 70 °F (at 6:00 AM)
Average temperature yesterday: 81 °F

Past Weeks' High & Low Weather Summary

 TemperatureHumidityPressure
High95 °F (Jul 11, 2:00 PM)91% (Jul 17, 7:00 AM)29.93 "Hg (Jul 17, 7:00 AM)
Low64 °F (Jul 18, 6:00 AM)27% (Jul 11, 2:00 PM)29.58 "Hg (Jul 11, 3:00 PM)
Average78 °F65%29.80 "Hg
* Reported Jul 9 11:00 AM — Jul 24 8:00 AM, Bursa, Weather by CustomWeather, © 2014

Note: Actual official high and low records may vary slightly from our data, if they occured in-between our weather recording intervals... More about our weather records

Advertising

Bursa weather history for previous 24 hours

 ConditionsComfort  
Time TempWeatherWind HumidityBarometerVisibility
8:00 AM
Jul 24
77 °FSunny.2 mph68%29.75 "Hg9 mi
7:00 AM73 °FSunny.2 mph70%29.75 "Hg9 mi
6:00 AM70 °FSunny.1 mph86%29.75 "Hg9 mi
5:00 AM72 °FClear.2 mph74%29.75 "Hg9 mi
4:00 AM72 °FClear.No wind85%29.74 "Hg12 mi
3:00 AM75 °FClear.1 mph78%29.75 "Hg12 mi
2:00 AM76 °FClear.6 mph75%29.75 "Hg12 mi
1:00 AM77 °FClear.6 mph74%29.75 "Hg12 mi
12:00 AM79 °FClear.7 mph61%29.75 "Hg12 mi
11:00 PM
Jul 23
80 °FClear.6 mph57%29.74 "Hg12 mi
10:00 PM83 °FClear.9 mph51%29.72 "Hg12 mi
9:00 PM86 °FClear.2 mph44%29.70 "Hg12 mi
8:00 PM88 °FPassing clouds.3 mph40%29.68 "Hg12 mi
7:00 PM91 °FPassing clouds.6 mph35%29.67 "Hg12 mi
6:00 PM92 °FSunny.8 mph36%29.66 "Hg12 mi
5:00 PM93 °FSunny.7 mph38%29.65 "Hg12 mi
3:00 PM94 °FSunny.3 mph40%29.67 "Hg12 mi
Weather by CustomWeather, © 2014

See weather overviewHow to use our weather pages